Location: Harwich
(41.7160°N, 69.9939°W)
Time: 11:03:48
(UTC+01:00)

A-11 Canister half - Visible Passes

Search period start: 28 January 2023 00:00
Search period end: 07 February 2023 00:00
Orbit: 1525 x 1683 km, 47.3° (Epoch: 25 January)

Date Brightness Start Highest point End Pass type
(mag) Time Alt. Az. Time Alt. Az. Time Alt. Az.
28 Jan 10.1 11:54:25 10° SSW 12:03:01 45° SE 12:11:45 10° ENE visible
29 Jan 10.1 11:32:52 10° SSW 11:41:23 42° SE 11:50:00 10° ENE visible
30 Jan 10.1 11:11:21 10° SSW 11:19:45 40° SE 11:28:14 10° ENE visible
31 Jan 10.2 10:49:49 10° SSW 10:58:07 38° SE 11:06:28 10° ENE visible
01 Feb 10.2 10:28:19 10° SSW 10:36:29 36° SE 10:44:42 10° ENE visible
02 Feb 10.2 10:06:49 10° SSW 10:14:51 34° SE 10:22:55 10° ENE visible
02 Feb 9.1 12:09:44 10° WSW 12:19:03 88° SSE 12:28:33 10° ENE visible
03 Feb 10.2 09:47:01 16° S 09:53:14 32° SE 10:01:08 10° ENE visible
03 Feb 9.0 11:48:03 10° WSW 11:57:22 86° SSE 12:06:49 10° ENE visible
04 Feb 10.2 09:27:29 22° S 09:31:37 31° SE 09:39:21 10° ENE visible
04 Feb 9.0 11:26:22 10° WSW 11:35:41 83° SSE 11:45:06 10° ENE visible
05 Feb 10.2 09:07:43 26° SSE 09:10:00 29° SE 09:17:32 10° ENE visible
05 Feb 9.0 11:06:05 16° SW 11:13:59 81° SSE 11:23:23 10° ENE visible
06 Feb 10.2 08:47:49 27° SE 08:48:22 27° SE 08:55:44 10° ENE visible
06 Feb 9.0 10:46:09 25° SW 10:52:18 78° SSE 11:01:40 10° ENE visible
